Location: Hilton Head Island
(32.2163°N, 80.7526°W)
Time: 15:51:45
(UTC-05:00)

Explorer 11/Cluster Stage 4 - Pass Details

Date: 23 February 2026
Orbit: 463 x 1176 km, 28.8° (Epoch: 6 March)

Event Time Altitude Azimuth Distance (km) Brightness Sun altitude
Rises 11:03:15 0° 247° (WSW) 3,551 9.9 42.6°
Reaches altitude 10° 11:06:11 10° 241° (WSW) 2,484 9.2 42.9°
Maximum altitude 11:11:46 46° 170° (S) 979 9.2 43.5°
Drops below altitude 10° 11:16:19 10° 97° (E) 2,025 9.2 44.0°
Sets 11:18:30 0° 91° (E) 2,834 9.7 44.2°
